Regional Weather Roundup
Issued by NWS

Home | Current Version | Previous Version | Graphics & Text | Print | Product List | Glossary On
Versions: 1 2 3 4 5 6 7 8 9 10 11 12 13 14 15 16 17 18 19 20 21 22 23 24 25 26 27 28 29 30 31 32 33 34 35 36 37 38 39 40 41 42 43 44 45 46 47 48 49 50
000
ASUS45 KBOI 270910
RWRID

IDAHO REGIONAL WEATHER ROUNDUP
NATIONAL WEATHER SERVICE BOISE ID
300 AM MDT WED JUL 27 2016

NOTE: "FAIR" INDICATES FEW OR NO CLOUDS BELOW 12000 FEET
WITH NO SIGNIFICANT WEATHER AND/OR OBSTRUCTIONS TO VISIBILITY

IDZ012-014-271000-
SOUTHWEST IDAHO


CITY           SKY/WX    TMP DP  RH WIND       PRES   REMARKS
BOISE          CLEAR     72  52  49 S6        29.97S
CALDWELL       CLEAR     73  52  47 SW5       29.96R
MOUNTAIN HOME  CLEAR     69  41  36 N5        29.98R
$$

IDZ016-017-271000-
SOUTHCENTRAL IDAHO


CITY           SKY/WX    TMP DP  RH WIND       PRES   REMARKS
BURLEY         CLEAR     67  44  43 E10       30.07R
JEROME         CLEAR     70  40  33 E13       30.07R
TWIN FALLS     CLEAR     64  37  36 S7        30.07R
$$

IDZ019>023-271000-
SOUTHEAST IDAHO


CITY           SKY/WX    TMP DP  RH WIND       PRES   REMARKS
IDAHO FALLS    CLEAR     56  44  64 NE5       30.13R
POCATELLO      CLEAR     59  45  59 SW5       30.11S
REXBURG        CLEAR     55  47  74 NE3       30.14R
$$

IDZ006-010-011-018-031-032-271000-
CENTRAL IDAHO MOUNTAINS


CITY           SKY/WX    TMP DP  RH WIND       PRES   REMARKS
MCCALL         CLEAR     61  48  62 NW3       30.15S
HAILEY         CLEAR     61  39  44 NW10      30.20S
STANLEY          N/A     51  35  54 S7        30.28S
SALMON         CLEAR     54  45  71 CALM      30.14R
CHALLIS        CLEAR     57  38  48 CALM      30.18S
$$

IDZ002-004-006-007-026-271000-
NORTHERN IDAHO


CITY           SKY/WX    TMP DP  RH WIND       PRES   REMARKS
LEWISTON       PTCLDY    77  50  38 CALM      29.95S
LOWELL           N/A     63  57  81 N5        30.01S
COEUR D`ALENE  CLEAR     64  55  72 NE10      30.01R
MULLAN PASS      N/A     62  42  47 CALM      30.23F
$$



USA.gov is the U.S. government's official web portal to all federal, state and local government web resources and services.